TimeCDT,TemperatureF,Dew PointF,Humidity,Sea Level PressureIn,VisibilityMPH,Wind Direction,Wind SpeedMPH,Gust SpeedMPH,PrecipitationIn,Events,Conditions,WindDirDegrees,DateUTC
12:15 AM,66.2,60.8,83,30.07,10.0,South,5.8,-,N/A,,Clear,180,2013-07-05 05:15:00
12:35 AM,66.2,60.8,83,30.08,10.0,South,4.6,-,N/A,,Clear,180,2013-07-05 05:35:00
12:55 AM,66.2,60.8,83,30.07,10.0,South,3.5,-,N/A,,Clear,180,2013-07-05 05:55:00
1:15 AM,64.4,60.8,88,30.07,10.0,South,4.6,-,N/A,,Clear,170,2013-07-05 06:15:00
1:35 AM,64.4,60.8,88,30.07,10.0,South,5.8,-,N/A,,Clear,170,2013-07-05 06:35:00
1:55 AM,64.4,60.8,88,30.07,10.0,South,4.6,-,N/A,,Clear,180,2013-07-05 06:55:00
2:15 AM,64.4,60.8,88,30.06,10.0,South,4.6,-,N/A,,Clear,170,2013-07-05 07:15:00
2:35 AM,64.4,60.8,88,30.06,10.0,South,5.8,-,N/A,,Clear,170,2013-07-05 07:35:00
2:55 AM,62.6,60.8,94,30.06,10.0,South,4.6,-,N/A,,Clear,180,2013-07-05 07:55:00
3:15 AM,62.6,59.0,88,30.06,10.0,South,4.6,-,N/A,,Clear,180,2013-07-05 08:15:00
3:35 AM,62.6,59.0,88,30.06,10.0,South,3.5,-,N/A,,Clear,180,2013-07-05 08:35:00
3:55 AM,62.6,59.0,88,30.06,10.0,South,3.5,-,N/A,,Clear,190,2013-07-05 08:55:00
4:15 AM,62.6,59.0,88,30.06,10.0,SSW,5.8,-,N/A,,Clear,200,2013-07-05 09:15:00
4:35 AM,62.6,59.0,88,30.06,10.0,SSW,4.6,-,N/A,,Clear,210,2013-07-05 09:35:00
4:55 AM,62.6,59.0,88,30.06,10.0,SSW,4.6,-,N/A,,Clear,200,2013-07-05 09:55:00
5:15 AM,62.6,59.0,88,30.07,10.0,SW,5.8,-,N/A,,Clear,220,2013-07-05 10:15:00
5:35 AM,62.6,59.0,88,30.07,10.0,SW,4.6,-,N/A,,Clear,220,2013-07-05 10:35:00
5:45 AM,62.6,59.0,88,30.07,10.0,Calm,Calm,-,N/A,,Clear,0,2013-07-05 10:45:00
6:45 AM,64.4,59.0,83,30.09,10.0,South,4.6,-,N/A,,Clear,180,2013-07-05 11:45:00
7:45 AM,68.0,60.8,78,30.10,10.0,WSW,6.9,-,N/A,,Clear,240,2013-07-05 12:45:00
8:45 AM,71.6,62.6,73,30.11,10.0,SW,9.2,-,N/A,,Clear,230,2013-07-05 13:45:00
9:45 AM,73.4,62.6,69,30.10,10.0,SW,6.9,-,N/A,,Clear,220,2013-07-05 14:45:00
10:45 AM,77.0,62.6,61,30.10,10.0,WSW,6.9,-,N/A,,Clear,240,2013-07-05 15:45:00
11:45 AM,78.8,62.6,57,30.09,10.0,WSW,5.8,-,N/A,,Scattered Clouds,240,2013-07-05 16:45:00
12:45 PM,78.8,60.8,54,30.08,10.0,South,6.9,-,N/A,,Scattered Clouds,190,2013-07-05 17:45:00
1:45 PM,78.8,62.6,57,30.07,10.0,South,9.2,-,N/A,,Scattered Clouds,190,2013-07-05 18:45:00
2:45 PM,80.6,62.6,54,30.06,10.0,SSW,9.2,-,N/A,,Scattered Clouds,200,2013-07-05 19:45:00
3:45 PM,80.6,60.8,51,30.04,10.0,SSW,10.4,16.1,N/A,,Scattered Clouds,210,2013-07-05 20:45:00
4:45 PM,77.0,59.0,54,30.04,10.0,SSE,15.0,18.4,N/A,,Scattered Clouds,150,2013-07-05 21:45:00
5:45 PM,78.8,57.2,47,30.04,10.0,SSE,10.4,17.3,N/A,,Scattered Clouds,160,2013-07-05 22:45:00
6:45 PM,77.0,57.2,50,30.03,10.0,SSE,11.5,-,N/A,,Partly Cloudy,150,2013-07-05 23:45:00
7:45 PM,75.2,57.2,53,30.03,10.0,South,4.6,-,N/A,,Clear,170,2013-07-06 00:45:00
8:45 PM,73.4,55.4,53,30.04,10.0,South,5.8,-,N/A,,Clear,170,2013-07-06 01:45:00
9:15 PM,69.8,55.4,60,30.04,10.0,SSE,8.1,-,N/A,,Clear,160,2013-07-06 02:15:00
9:35 PM,69.8,55.4,60,30.05,10.0,SSE,5.8,-,N/A,,Clear,160,2013-07-06 02:35:00
9:55 PM,69.8,59.0,68,30.06,10.0,SSE,6.9,-,N/A,,Clear,160,2013-07-06 02:55:00
10:15 PM,68.0,59.0,73,30.06,10.0,South,4.6,-,N/A,,Clear,170,2013-07-06 03:15:00
10:35 PM,68.0,59.0,73,30.06,10.0,South,5.8,-,N/A,,Clear,180,2013-07-06 03:35:00
10:55 PM,68.0,59.0,73,30.06,10.0,South,4.6,-,N/A,,Clear,180,2013-07-06 03:55:00
11:15 PM,68.0,59.0,73,30.06,10.0,South,4.6,-,N/A,,Clear,180,2013-07-06 04:15:00
11:35 PM,66.2,59.0,78,30.06,10.0,South,5.8,-,N/A,,Clear,170,2013-07-06 04:35:00
11:55 PM,66.2,60.8,83,30.06,10.0,South,5.8,-,N/A,,Clear,170,2013-07-06 04:55:00